This is the latest recevied weather packets stored in our database for station/object KC2G. If no packets are shown the sender has not sent any weather packets the latest 10 day(s).
| Time | Temp. | Humidity | Pressure | Rain* | Wind** | Luminosity | Snow |
|---|---|---|---|---|---|---|---|
| 1777424455 | 13.33° C | 59% | 1017.1 hPa | 0 mm | 0 m/s | - | - |
| 1777423555 | 13.33° C | 57% | 1017.1 hPa | 0 mm | 0 m/s | - | - |
| 1777422655 | 13.33° C | 55% | 1016.9 hPa | 0 mm | 0.45 m/s, 140° | - | - |
| 1777421755 | 13.89° C | 53% | 1017 hPa | 0 mm | 0.45 m/s, 168° | - | - |
| 1777420856 | 13.89° C | 52% | 1017 hPa | 0 mm | 0.45 m/s, 151° | - | - |
| 1777419955 | 13.89° C | 51% | 1017 hPa | 0 mm | 0.45 m/s, 106° | - | - |
| 1777419355 | 14.44° C | 52% | 1016.9 hPa | 0 mm | 0.45 m/s, 95° | - | - |
| 1777419056 | 14.44° C | 52% | 1016.9 hPa | 0 mm | 0.45 m/s, 95° | - | - |
| 1777418904 | 15° C | 52% | 1016.9 hPa | 0 mm | 0.45 m/s, 109° | - | - |
| 1777418155 | 14.44° C | 53% | 1017 hPa | 0 mm | 0.45 m/s, 124° | - | - |
| 1777417256 | 15° C | 52% | 1016.9 hPa | 0 mm | 0.45 m/s, 109° | - | - |
| 1777416987 | 15.56° C | 52% | 1017 hPa | 0 mm | 0.45 m/s, 136° | - | - |
| 1777416355 | 15° C | 52% | 1017 hPa | 0 mm | 0.45 m/s, 87° | - | - |
| 1777415455 | 15.56° C | 52% | 1017 hPa | 0 mm | 0.45 m/s, 136° | - | - |
| 1777415068 | 16.11° C | 50% | 1017.2 hPa | 0 mm | 0.45 m/s, 113° | - | - |
| 1777414555 | 15.56° C | 53% | 1017.1 hPa | 0 mm | 0.45 m/s, 119° | - | - |
| 1777413655 | 16.11° C | 50% | 1017.2 hPa | 0 mm | 0.45 m/s, 113° | - | - |
| 1777413144 | 16.11° C | 50% | 1017.2 hPa | 0 mm | 0.45 m/s, 129° | - | - |
| 1777412755 | 16.11° C | 50% | 1017.2 hPa | 0 mm | 0.45 m/s, 129° | - | - |
| 1777411856 | 16.11° C | 50% | 1017.2 hPa | 0 mm | 0.45 m/s, 129° | - | - |
| 1777410954 | 16.11° C | 50% | 1017.2 hPa | 0 mm | 0.45 m/s, 129° | - | - |
| 1777410055 | 16.11° C | 51% | 1017.1 hPa | 0 mm | 0.89 m/s, 89° | - | - |
| 1777409154 | 16.67° C | 50% | 1017.1 hPa | 0 mm | 0.45 m/s, 75° | - | - |
| 1777408255 | 16.67° C | 50% | 1017.3 hPa | 0 mm | 0.45 m/s, 84° | - | - |
| 1777407355 | 16.11° C | 49% | 1017.5 hPa | 0 mm | 0.45 m/s, 127° | - | - |
* Rain latest hour (hover to see other rain measurements)
** Current wind speed in m/s (hover to see current wind gust speed)